[[{"header":{"parameterUnit":"m.s-1","parameterCategory":1,"la1":30.2992,"la2":30.254,"lo1":-89.0895,"lo2":-89.0443,"dy":0.0025,"dx":0.0025,"nx":19,"ny":19,"refTime":"2026-04-17T03:00:00:Z","depth":0,"parameterNumber":2,"parameterNumberName":"U-component_of_WINDS"},"data":[0,0,0,1.845,1.8454,1.8611,1.8611,1.8803,1.8805,0,0,0,0,0,0,0,0,0,0,0,1.84,1.8401,1.845,1.8454,1.8611,1.8611,1.8803,1.8805,0,0,0,0,0,0,0,0,0,0,0,1.84,1.8401,1.8403,1.8454,1.8611,1.8611,1.8802,1.8687,0,0,0,0,0,0,0,0,0,0,1.8536,1.8486,1.8401,1.8403,1.8455,1.861,1.8612,1.8681,1.8694,1.8729,0,1.876,0,1.8785,1.8817,1.8818,0,0,0,1.8457,1.8476,1.8521,1.8403,1.8457,1.861,1.8541,1.8689,1.8703,1.8745,1.8763,1.877,1.8788,1.8818,1.8819,1.901,1.9011,0,0,1.8448,1.8426,1.8512,1.853,1.8507,1.8536,1.8545,1.8697,1.8714,1.8763,1.8774,1.8792,1.882,1.8821,1.901,1.9011,0,0,0,1.8421,1.842,1.8462,1.8522,1.8551,1.854,1.8552,1.8708,1.8723,1.8777,1.8794,1.8821,1.8823,1.9009,1.901,1.9025,0,0,0,1.8416,1.8405,1.8458,1.8447,1.8548,1.8632,1.8558,1.8713,1.873,1.8793,1.8821,1.8825,1.9008,1.901,1.9023,1.9035,0,0,0,1.8391,1.8402,1.8423,1.8445,1.8512,1.863,1.8654,1.8717,1.8741,1.8818,1.8825,1.9008,1.9009,1.9021,1.9032,1.9077,0,0,0,1.8358,1.8436,1.8423,1.8517,1.8511,1.8639,1.8654,1.8751,1.8819,1.8822,1.9008,1.901,1.902,1.903,1.9074,1.9108,1.9121,0,0,1.8445,1.8446,1.8503,1.8495,1.862,1.8617,1.8744,1.8827,1.8855,1.8956,1.8961,1.9024,1.9032,1.9076,1.9205,1.9215,0,0,0,1.8523,1.8563,1.8601,1.8664,1.8729,1.8785,1.8851,1.8881,1.8968,1.8903,1.9054,1.906,1.9086,1.9103,1.9112,1.9134,1.9018,1.9018,1.9017,1.8613,1.8643,1.8737,1.8785,1.8847,1.8912,1.8964,1.9015,1.9029,1.9064,1.9094,1.9169,1.9188,1.9194,1.9218,1.9116,1.9117,1.9117,1.9117,1.874,1.88,1.8814,1.891,1.894,1.9021,1.9087,1.9093,1.9171,1.915,1.9175,1.9146,1.9204,1.9226,1.9118,1.9118,1.9118,1.9118,1.9117,1.88,1.8833,1.8869,1.8961,1.9029,1.9075,1.9148,1.9174,1.9199,1.9224,1.9255,1.9255,1.9255,1.9238,1.9238,1.9238,1.9238,1.9238,1.9239,1.8847,1.8887,1.8946,1.9019,1.9061,1.912,1.9185,1.9227,1.928,1.9292,1.9293,1.93,1.9206,1.9179,1.9243,1.9242,1.9241,1.9241,1.9241,1.896,1.8938,1.9029,1.9071,1.9157,1.922,1.9253,1.9335,1.9373,1.9408,1.941,1.9337,1.934,1.9334,1.9312,1.9405,1.9405,1.9405,1.9406,1.9008,1.9013,1.9109,1.9174,1.9241,1.9278,1.9376,1.9427,1.9475,1.95,1.949,1.9465,1.9457,1.9465,1.9455,1.9435,1.9558,1.9558,1.9558,1.9077,1.9089,1.9168,1.9216,1.9284,1.9342,1.9434,1.9506,1.9557,1.9565,1.9519,1.9512,1.9471,1.9457,1.9462,1.9447,1.9411,0,0]},{"header":{"parameterUnit":"m.s-1","parameterCategory":1,"la1":30.2992,"la2":30.254,"lo1":-89.0895,"lo2":-89.0443,"dy":0.0025,"dx":0.0025,"nx":19,"ny":19,"refTime":"2026-04-17T03:00:00:Z","depth":0,"parameterNumber":3,"parameterNumberName":"V-component_of_WINDS"},"data":[0,0,0,0.893,0.893,0.8953,0.8953,0.8987,0.8988,0,0,0,0,0,0,0,0,0,0,0,0.8926,0.8927,0.893,0.893,0.8953,0.8953,0.8987,0.8988,0,0,0,0,0,0,0,0,0,0,0,0.8926,0.8927,0.8927,0.893,0.8953,0.8953,0.8987,0.8968,0,0,0,0,0,0,0,0,0,0,0.8945,0.8946,0.8927,0.8927,0.8931,0.8953,0.8953,0.8967,0.8969,0.8979,0,0.8989,0,0.8989,0.899,0.899,0,0,0,0.8928,0.8944,0.8947,0.8927,0.8931,0.8953,0.8942,0.8968,0.8971,0.8982,0.899,0.8991,0.8989,0.899,0.8991,0.9055,0.9055,0,0,0.8926,0.8933,0.8945,0.8948,0.8946,0.8941,0.8943,0.897,0.8978,0.899,0.8991,0.899,0.8991,0.8991,0.9055,0.9055,0,0,0,0.8924,0.8932,0.8934,0.8947,0.8951,0.8942,0.8944,0.8977,0.8977,0.8992,0.899,0.8991,0.8991,0.9054,0.9055,0.9081,0,0,0,0.8924,0.8931,0.8933,0.8938,0.8951,0.8965,0.8951,0.8975,0.8978,0.899,0.8991,0.8992,0.9054,0.9054,0.908,0.9093,0,0,0,0.8924,0.8931,0.8935,0.8938,0.8948,0.8964,0.8966,0.8976,0.8978,0.899,0.8992,0.9053,0.9054,0.9078,0.9091,0.9111,0,0,0,0.8926,0.896,0.8936,0.8973,0.8948,0.898,0.8965,0.8989,0.9004,0.8991,0.9054,0.9055,0.9078,0.9089,0.9109,0.913,0.9139,0,0,0.8972,0.8966,0.8987,0.8966,0.9004,0.8976,0.9018,0.9025,0.9021,0.9044,0.9045,0.908,0.909,0.9111,0.9186,0.9193,0,0,0,0.9003,0.9019,0.9027,0.9041,0.9046,0.9052,0.9052,0.9054,0.9072,0.9034,0.9093,0.9099,0.911,0.912,0.9126,0.9135,0.9059,0.9059,0.9059,0.9079,0.907,0.9104,0.9098,0.911,0.9108,0.9118,0.912,0.9109,0.9122,0.913,0.9176,0.9188,0.9192,0.9202,0.9139,0.9139,0.9139,0.9139,0.9146,0.9166,0.9147,0.9174,0.9164,0.9185,0.9183,0.9174,0.9192,0.9171,0.9181,0.9159,0.92,0.9208,0.9141,0.9141,0.9141,0.9141,0.914,0.9195,0.9203,0.9204,0.922,0.9233,0.9225,0.9242,0.9232,0.9223,0.9233,0.9238,0.9238,0.9236,0.9236,0.9236,0.9236,0.9237,0.9237,0.9237,0.9246,0.9246,0.9262,0.9268,0.9274,0.928,0.9276,0.9281,0.9284,0.9276,0.9276,0.9262,0.9206,0.9192,0.9239,0.9239,0.9238,0.9238,0.9238,0.9318,0.9299,0.9324,0.933,0.9335,0.9347,0.9333,0.9344,0.9346,0.9355,0.9338,0.9298,0.9291,0.9286,0.9274,0.934,0.934,0.934,0.934,0.936,0.9354,0.9376,0.9385,0.9392,0.9381,0.9407,0.9403,0.9396,0.9397,0.9385,0.9369,0.9364,0.936,0.9353,0.9342,0.9424,0.9424,0.9424,0.9403,0.9397,0.9422,0.9414,0.9417,0.9418,0.9442,0.9452,0.944,0.9427,0.9397,0.9393,0.9366,0.9358,0.9346,0.9337,0.9316,0,0]}]]